Overview Statistics Trail Chart Weather Telemetry Raw packets
 

This is the latest recevied weather packets stored in our database for station/object YM2KA-13. If no packets are shown the sender has not sent any weather packets the latest 10 day(s).

<< 68 69 70 71 72 73 74 >>
Time Temp. Humidity Pressure Rain* Wind** Luminosity Snow
1788063788 15.56° C 83% 1009.3 hPa 0 mm - - -
1788063615 15.56° C 84% 1009.3 hPa 0 mm - - -
1788063016 15.56° C 84% 1009.2 hPa 0 mm - - -
1788062884 15.56° C 84% 1009.2 hPa 0 mm - - -
1788062416 15.56° C 84% 1009.3 hPa 0 mm - - -
1788061980 15.56° C 85% 1009.2 hPa 0 mm - - -
1788061817 15.56° C 85% 1009.2 hPa 0.25 mm - - -
1788061219 15.56° C 84% 1009.2 hPa 0.25 mm - - -
1788061087 15.56° C 84% 1009.2 hPa 0.25 mm - - -
1788060620 15.56° C 83% 1009.2 hPa 0.51 mm - - -
1788060183 15° C 85% 1009 hPa 0.51 mm - - -
1788060021 15° C 86% 1009.1 hPa 0.76 mm - - -
1788059422 15.56° C 85% 1009 hPa 1.02 mm - - -
1788059280 15.56° C 85% 1009 hPa 1.02 mm - - -
1788058823 15° C 85% 1009 hPa 1.02 mm - - -
1788058387 15° C 84% 1009.1 hPa 1.02 mm - - -
1788058214 15° C 84% 1009.2 hPa 0.76 mm - - -
1788057616 15.56° C 82% 1009.3 hPa 0.76 mm - - -
1788057483 15.56° C 82% 1009.3 hPa 0.76 mm - - -
1788057016 15.56° C 80% 1009.2 hPa 0.51 mm - - -
1788056580 16.11° C 77% 1009.3 hPa 0.51 mm - - -
1788056417 16.11° C 76% 1009.3 hPa 0.25 mm - - -
1788055818 16.67° C 74% 1009.1 hPa 0 mm - - -
1788055686 16.67° C 74% 1009.1 hPa 0 mm - - -
1788055218 16.67° C 73% 1009.1 hPa 0 mm - - -

* Rain latest hour (hover to see other rain measurements)
** Current wind speed in m/s (hover to see current wind gust speed)